Tracking 30970 objects as of 3-Jul-2025
HD Live streaming from Space Station
objects crossing your sky now

COSMOS 2251 DEB

Track COSMOS 2251 DEB now!
10-day predictions


NORAD ID: 33999
Int'l Code: 1993-036GJ
Perigee: 608.2 km
Apogee: 670.7 km
Inclination: 73.9 °
Period: 97.4 minutes
Semi major axis: 7010 km
RCS: 0.0543 m2 (small)
Launch date: June 16, 1993
Source: Commonwealth of Independent States (former USSR) (CIS)
Launch site: PLESETSK MISSILE AND SPACE COMPLEX (PKMTR)

Note: This is SATELLITE DEBRIS
Your satellite tracking list
Your tracking list is empty




NASA's NSSDC Master Catalog

Two Line Element Set (TLE):
1 33999U 93036GJ  25183.76647550  .00005823  00000-0  77822-3 0  9990
2 33999  73.9206 194.5152 0044556 125.4282 235.1066 14.79055266868388
Source of the keplerian elements: AFSPC